This is the latest recevied weather packets stored in our database for station/object IT9CNT. If no packets are shown the sender has not sent any weather packets the latest 10 day(s).
| Time | Temp. | Humidity | Pressure | Rain* | Wind** | Luminosity | Snow |
|---|---|---|---|---|---|---|---|
| 1787512323 | 27.78° C | 83% | 1013 hPa | 6.35 mm | - | - | - |
| 1787512263 | 27.78° C | 83% | 1013.3 hPa | 6.35 mm | - | - | - |
| 1787512203 | 27.78° C | 83% | 1013 hPa | 6.35 mm | - | - | - |
| 1787512143 | 27.78° C | 84% | 1012.9 hPa | 6.35 mm | - | - | - |
| 1787512083 | 27.78° C | 84% | 1013.2 hPa | 6.35 mm | - | - | - |
| 1787512023 | 27.78° C | 84% | 1013.3 hPa | 6.35 mm | - | - | - |
| 1787511963 | 27.78° C | 84% | 1013.1 hPa | 6.35 mm | - | - | - |
| 1787511903 | 27.78° C | 84% | 1013 hPa | 6.35 mm | - | - | - |
| 1787511843 | 27.78° C | 84% | 1013.2 hPa | 6.35 mm | - | - | - |
| 1787511783 | 27.78° C | 84% | 1013.1 hPa | 6.35 mm | - | - | - |
| 1787511723 | 27.78° C | 84% | 1013.1 hPa | 6.35 mm | - | - | - |
| 1787511663 | 27.78° C | 84% | 1013.1 hPa | 6.35 mm | - | - | - |
| 1787511604 | 27.78° C | 84% | 1013.2 hPa | 6.35 mm | - | - | - |
| 1787511543 | 27.78° C | 84% | 1013.1 hPa | 6.6 mm | - | - | - |
| 1787511483 | 27.78° C | 84% | 1013 hPa | 6.86 mm | - | - | - |
| 1787511423 | 27.78° C | 84% | 1013 hPa | 6.86 mm | - | - | - |
| 1787511363 | 27.78° C | 84% | 1013.2 hPa | 6.86 mm | - | - | - |
| 1787511303 | 27.78° C | 84% | 1013.2 hPa | 6.86 mm | - | - | - |
| 1787511243 | 27.78° C | 84% | 1013 hPa | 7.11 mm | - | - | - |
| 1787511183 | 27.78° C | 83% | 1012.9 hPa | 7.62 mm | - | - | - |
| 1787511123 | 27.78° C | 83% | 1013.1 hPa | 8.13 mm | - | - | - |
| 1787511063 | 27.78° C | 83% | 1012.9 hPa | 8.64 mm | - | - | - |
| 1787511003 | 27.78° C | 83% | 1013.1 hPa | 8.64 mm | - | - | - |
| 1787510943 | 27.78° C | 83% | 1013 hPa | 8.64 mm | - | - | - |
| 1787510883 | 27.78° C | 83% | 1013.1 hPa | 9.4 mm | - | - | - |
* Rain latest hour (hover to see other rain measurements)
** Current wind speed in m/s (hover to see current wind gust speed)